Flag for U.S.A. Weather past 2 weeks in Barrow, Alaska, U.S.A.

Now
40 °F

Partly sunny.


Feels Like: 37 °F
Forecast: 27 / 37 °F
Wind: 5 mph from East

Location: Post Rogers Memorial Airport

Current Time: May 22, 2015 at 9:55:30 PM

Latest Report: May 22, 2015 at 8:53 PM


Visibility: 10 mi

Pressure: 30.21 "Hg

Humidity: 60%

Dew point: 27 °F

Location of BarrowLocation

Historic Weather in Barrow — Graph

°F

Barrow temperature yesterday

Maximum temperature yesterday: 47 °F (at 5:53 PM)
Minimum temperature yesterday: 32 °F (at 12:59 AM)
Average temperature yesterday: 38 °F

Past Weeks' High & Low Weather Summary

 TemperatureHumidityPressure
High47 °F (May 21, 5:53 PM)100% (May 7, 9:53 PM)30.23 "Hg (May 7, 9:53 PM)
Low16 °F (May 8, 4:56 AM)65% (May 22, 7:53 PM)29.68 "Hg (May 8, 2:53 PM)
Average31 °F93%29.96 "Hg
* Reported May 7 7:53 PM — May 22 7:53 PM, Barrow, Weather by CustomWeather, © 2015

Note: Actual official high and low records may vary slightly from our data, if they occured in-between our weather recording intervals... More about our weather records

Advertising

Barrow weather history for previous 24 hours

 ConditionsComfort  
Time TempWeatherWind HumidityBarometerVisibility
7:53 PM
Fri, May 22
39 °FPartly sunny.5 mph65%30.21 "Hg10 mi
6:53 PM38 °FPartly sunny.6 mph70%30.22 "Hg10 mi
5:53 PM38 °FPartly sunny.7 mph73%30.22 "Hg10 mi
4:53 PM37 °FPartly sunny.12 mph76%30.22 "Hg10 mi
3:53 PM38 °FScattered clouds.12 mph73%30.23 "Hg10 mi
2:53 PM37 °FScattered clouds.12 mph76%30.21 "Hg10 mi
1:53 PM38 °FScattered clouds.17 mph73%30.20 "Hg10 mi
12:53 PM38 °FScattered clouds.18 mph70%30.18 "Hg10 mi
11:53 AM36 °FPartly sunny.21 mph75%30.16 "Hg10 mi
10:53 AM37 °FPassing clouds.20 mph70%30.14 "Hg10 mi
9:53 AM35 °FScattered clouds.14 mph78%30.14 "Hg10 mi
8:53 AM35 °FScattered clouds.14 mph78%30.13 "Hg10 mi
7:53 AM34 °FScattered clouds.14 mph82%30.11 "Hg10 mi
6:53 AM34 °FPartly sunny.12 mph88%30.09 "Hg10 mi
5:53 AM34 °FBroken clouds.10 mph88%30.08 "Hg10 mi
4:53 AM35 °FOvercast.10 mph85%30.05 "Hg10 mi
3:53 AM34 °FOvercast.10 mph92%30.03 "Hg10 mi
2:53 AM35 °FMostly cloudy.8 mph92%30.02 "Hg10 mi
1:53 AM36 °FMostly cloudy.12 mph92%30.01 "Hg10 mi
12:53 AM37 °FBroken clouds.10 mph89%29.97 "Hg10 mi
11:53 PM
Thu, May 21
40 °FBroken clouds.13 mph86%29.94 "Hg10 mi
10:53 PM39 °FScattered clouds.10 mph86%29.93 "Hg10 mi
9:53 PM41 °FPassing clouds.10 mph86%29.93 "Hg10 mi
Weather by CustomWeather, © 2015

See weather overviewHow to use our weather pages